Time,TemperatureF,DewpointF,PressureIn,WindDirection,WindDirectionDegrees,WindSpeedMPH,WindSpeedGustMPH,Humidity,HourlyPrecipIn,Conditions,Clouds,dailyrainin,SoftwareType,DateUTC
2013-01-03 00:03:00,28.0,19.0,30.18,NNE,18,0.0,0.0,68,0.00,,,0.00,,2013-01-03 05:03:00,
2013-01-03 00:12:00,28.0,19.0,30.18,NNE,18,0.0,0.0,68,0.00,,,0.00,,2013-01-03 05:12:00,
2013-01-03 00:23:00,28.0,19.0,30.18,NNE,18,0.0,0.0,68,0.00,,,0.00,,2013-01-03 05:23:00,
2013-01-03 00:33:00,28.0,19.0,30.17,NNE,18,0.0,0.0,69,0.00,,,0.00,,2013-01-03 05:33:00,
2013-01-03 00:42:00,28.0,19.0,30.17,NNE,18,0.0,0.0,69,0.00,,,0.00,,2013-01-03 05:42:00,
2013-01-03 00:53:00,28.0,20.0,30.17,NNE,18,0.0,0.0,70,0.00,,,0.00,,2013-01-03 05:53:00,
2013-01-03 01:02:00,27.0,19.0,30.17,NNE,18,0.0,0.0,70,0.00,,,0.00,,2013-01-03 06:02:00,
2013-01-03 01:12:00,27.0,19.0,30.17,NNE,18,0.0,0.0,70,0.00,,,0.00,,2013-01-03 06:12:00,
2013-01-03 01:22:00,27.0,19.0,30.16,NNE,18,0.0,0.0,70,0.00,,,0.00,,2013-01-03 06:22:00,
2013-01-03 01:33:00,27.0,19.0,30.16,NNE,18,0.0,0.0,70,0.00,,,0.00,,2013-01-03 06:33:00,
2013-01-03 01:42:00,27.0,19.0,30.16,NNE,18,0.0,0.0,70,0.00,,,0.00,,2013-01-03 06:42:00,
2013-01-03 01:53:00,27.0,19.0,30.16,NNE,18,0.0,0.0,70,0.00,,,0.00,,2013-01-03 06:53:00,
2013-01-03 02:02:00,27.0,19.0,30.16,NNE,18,0.0,0.0,70,0.00,,,0.00,,2013-01-03 07:02:00,
2013-01-03 02:12:00,27.0,19.0,30.16,NNE,18,0.0,0.0,70,0.00,,,0.00,,2013-01-03 07:12:00,
2013-01-03 02:22:00,27.0,19.0,30.17,NNE,18,0.0,0.0,70,0.00,,,0.00,,2013-01-03 07:22:00,
2013-01-03 02:33:00,27.0,19.0,30.18,NNE,18,0.0,0.0,70,0.00,,,0.00,,2013-01-03 07:33:00,
2013-01-03 02:42:00,27.0,19.0,30.18,NNE,18,0.0,0.0,70,0.00,,,0.00,,2013-01-03 07:42:00,
2013-01-03 02:53:00,27.0,19.0,30.17,NNE,18,0.0,0.0,70,0.00,,,0.00,,2013-01-03 07:53:00,
2013-01-03 03:02:00,27.0,19.0,30.17,NNE,18,0.0,0.0,70,0.00,,,0.00,,2013-01-03 08:02:00,
2013-01-03 03:12:00,27.0,19.0,30.17,NNE,18,0.0,0.0,70,0.00,,,0.00,,2013-01-03 08:12:00,
2013-01-03 03:22:00,27.0,19.0,30.18,NNE,18,0.0,0.0,70,0.00,,,0.00,,2013-01-03 08:22:00,
2013-01-03 03:33:00,27.0,19.0,30.18,NNE,18,0.0,0.0,71,0.00,,,0.00,,2013-01-03 08:33:00,
2013-01-03 03:43:00,27.0,19.0,30.18,NNE,18,0.0,0.0,71,0.00,,,0.00,,2013-01-03 08:43:00,
2013-01-03 03:53:00,27.0,19.0,30.18,NNE,18,0.0,0.0,71,0.00,,,0.00,,2013-01-03 08:53:00,
2013-01-03 04:02:00,27.0,19.0,30.17,NNE,18,0.0,0.0,71,0.00,,,0.00,,2013-01-03 09:02:00,
2013-01-03 04:12:00,27.0,19.0,30.17,NNE,18,0.0,0.0,71,0.00,,,0.00,,2013-01-03 09:12:00,
2013-01-03 04:22:00,27.0,19.0,30.16,NNE,18,0.0,0.0,72,0.00,,,0.00,,2013-01-03 09:22:00,
2013-01-03 04:33:00,27.0,19.0,30.16,NNE,18,0.0,0.0,72,0.00,,,0.00,,2013-01-03 09:33:00,
2013-01-03 04:43:00,27.0,19.0,30.16,NNE,18,0.0,0.0,72,0.00,,,0.00,,2013-01-03 09:43:00,
2013-01-03 04:53:00,27.0,19.0,30.15,NNE,18,0.0,0.0,72,0.00,,,0.00,,2013-01-03 09:53:00,
2013-01-03 05:02:00,27.0,19.0,30.16,NNE,18,0.0,0.0,72,0.00,,,0.00,,2013-01-03 10:02:00,
2013-01-03 05:12:00,27.0,19.0,30.16,NNE,18,0.0,0.0,72,0.00,,,0.00,,2013-01-03 10:12:00,
2013-01-03 05:23:00,27.0,20.0,30.16,NNE,18,0.0,0.0,73,0.00,,,0.00,,2013-01-03 10:23:00,
2013-01-03 05:33:00,27.0,20.0,30.16,NNE,18,0.0,0.0,73,0.00,,,0.00,,2013-01-03 10:33:00,
2013-01-03 05:43:00,27.0,20.0,30.16,NNE,18,0.0,0.0,73,0.00,,,0.00,,2013-01-03 10:43:00,
2013-01-03 05:53:00,27.0,20.0,30.16,NNE,18,0.0,0.0,73,0.00,,,0.00,,2013-01-03 10:53:00,
2013-01-03 06:02:00,27.0,20.0,30.17,NNE,18,0.0,0.0,73,0.00,,,0.00,,2013-01-03 11:02:00,
2013-01-03 06:12:00,27.0,20.0,30.17,NNE,18,0.0,0.0,73,0.00,,,0.00,,2013-01-03 11:12:00,
2013-01-03 06:23:00,27.0,20.0,30.17,NNE,18,0.0,0.0,74,0.00,,,0.00,,2013-01-03 11:23:00,
2013-01-03 06:33:00,26.0,19.0,30.18,NNE,18,0.0,0.0,74,0.00,,,0.00,,2013-01-03 11:33:00,
2013-01-03 06:43:00,26.0,19.0,30.18,NNE,18,0.0,0.0,74,0.00,,,0.00,,2013-01-03 11:43:00,
2013-01-03 06:53:00,26.0,19.0,30.18,NNE,18,0.0,0.0,75,0.00,,,0.00,,2013-01-03 11:53:00,
2013-01-03 07:03:00,26.0,19.0,30.18,NNE,18,0.0,0.0,74,0.00,,,0.00,,2013-01-03 12:03:00,
2013-01-03 07:12:00,26.0,19.0,30.18,NNE,18,0.0,0.0,74,0.00,,,0.00,,2013-01-03 12:12:00,
2013-01-03 07:22:00,26.0,19.0,30.18,NNE,18,0.0,0.0,75,0.00,,,0.00,,2013-01-03 12:22:00,
2013-01-03 07:33:00,25.0,18.0,30.19,NNE,18,0.0,0.0,75,0.00,,,0.00,,2013-01-03 12:33:00,
2013-01-03 07:42:00,25.0,18.0,30.19,NNE,18,0.0,0.0,75,0.00,,,0.00,,2013-01-03 12:42:00,
2013-01-03 07:53:00,25.0,18.0,30.19,NNE,18,0.0,0.0,75,0.00,,,0.00,,2013-01-03 12:53:00,
2013-01-03 08:02:00,25.0,18.0,30.18,NNE,18,0.0,0.0,75,0.00,,,0.00,,2013-01-03 13:02:00,
2013-01-03 08:13:00,25.0,18.0,30.18,NNE,18,0.0,0.0,75,0.00,,,0.00,,2013-01-03 13:13:00,
2013-01-03 08:22:00,25.0,19.0,30.19,NNE,18,0.0,0.0,76,0.00,,,0.00,,2013-01-03 13:22:00,
2013-01-03 08:33:00,25.0,19.0,30.19,NNE,18,0.0,0.0,77,0.00,,,0.00,,2013-01-03 13:33:00,
2013-01-03 08:42:00,25.0,19.0,30.19,NNE,18,0.0,0.0,77,0.00,,,0.00,,2013-01-03 13:42:00,
2013-01-03 08:53:00,25.0,19.0,30.19,NNE,18,0.0,0.0,77,0.00,,,0.00,,2013-01-03 13:53:00,
2013-01-03 09:03:00,25.0,19.0,30.19,NNE,18,0.0,0.0,78,0.00,,,0.00,,2013-01-03 14:03:00,
2013-01-03 09:12:00,25.0,19.0,30.19,NNE,18,0.0,0.0,78,0.00,,,0.00,,2013-01-03 14:12:00,
2013-01-03 09:23:00,27.0,21.0,30.19,NNE,18,0.0,0.0,78,0.00,,,0.00,,2013-01-03 14:23:00,
2013-01-03 09:33:00,29.0,20.0,30.21,NNE,18,0.0,0.0,70,0.00,,,0.00,,2013-01-03 14:33:00,
2013-01-03 09:43:00,29.0,20.0,30.21,NNE,18,0.0,0.0,70,0.00,,,0.00,,2013-01-03 14:43:00,
2013-01-03 09:53:00,30.0,20.0,30.20,NNE,18,0.0,0.0,67,0.00,,,0.00,,2013-01-03 14:53:00,
2013-01-03 10:03:00,30.0,19.0,30.20,NNE,18,0.0,0.0,64,0.00,,,0.00,,2013-01-03 15:03:00,
2013-01-03 10:12:00,30.0,19.0,30.20,NNE,18,0.0,0.0,64,0.00,,,0.00,,2013-01-03 15:12:00,
2013-01-03 10:23:00,31.0,19.0,30.21,NNE,18,0.0,0.0,61,0.00,,,0.00,,2013-01-03 15:23:00,
2013-01-03 10:33:00,31.0,21.0,30.20,NNE,18,0.0,0.0,65,0.00,,,0.00,,2013-01-03 15:33:00,
2013-01-03 10:43:00,31.0,21.0,30.20,NNE,18,0.0,0.0,65,0.00,,,0.00,,2013-01-03 15:43:00,
2013-01-03 10:53:00,31.0,20.0,30.19,NNE,18,0.0,0.0,62,0.00,,,0.00,,2013-01-03 15:53:00,
2013-01-03 11:03:00,32.0,20.0,30.19,NNW,342,0.0,1.0,60,0.00,,,0.00,,2013-01-03 16:03:00,
2013-01-03 11:12:00,32.0,20.0,30.19,NNW,342,0.0,1.0,60,0.00,,,0.00,,2013-01-03 16:12:00,
2013-01-03 11:23:00,32.0,20.0,30.19,NNW,345,0.0,2.0,62,0.00,,,0.00,,2013-01-03 16:23:00,
2013-01-03 11:33:00,33.0,22.0,30.18,SW,232,0.0,1.0,63,0.00,,,0.00,,2013-01-03 16:33:00,
2013-01-03 11:43:00,33.0,22.0,30.18,SW,232,0.0,1.0,63,0.00,,,0.00,,2013-01-03 16:43:00,
2013-01-03 11:53:00,34.0,22.0,30.17,NNW,333,0.0,3.0,60,0.00,,,0.00,,2013-01-03 16:53:00,
2013-01-03 12:03:00,34.0,22.0,30.17,North,1,1.0,2.0,60,0.00,,,0.00,,2013-01-03 17:03:00,
2013-01-03 12:13:00,34.0,22.0,30.17,North,1,1.0,2.0,60,0.00,,,0.00,,2013-01-03 17:13:00,
2013-01-03 12:23:00,34.0,21.0,30.16,NW,307,1.0,3.0,58,0.00,,,0.00,,2013-01-03 17:23:00,
2013-01-03 12:33:00,35.0,22.0,30.14,NNE,23,0.0,2.0,58,0.00,,,0.00,,2013-01-03 17:33:00,
2013-01-03 12:43:00,35.0,22.0,30.14,NNE,23,0.0,2.0,58,0.00,,,0.00,,2013-01-03 17:43:00,
2013-01-03 12:53:00,35.0,22.0,30.14,WSW,253,0.0,2.0,59,0.00,,,0.00,,2013-01-03 17:53:00,
2013-01-03 13:03:00,36.0,23.0,30.12,South,179,0.0,2.0,59,0.00,,,0.00,,2013-01-03 18:03:00,
2013-01-03 13:13:00,36.0,23.0,30.12,South,179,0.0,2.0,59,0.00,,,0.00,,2013-01-03 18:13:00,
2013-01-03 13:22:00,35.0,22.0,30.11,WNW,282,0.0,1.0,59,0.00,,,0.00,,2013-01-03 18:22:00,
2013-01-03 13:33:00,36.0,24.0,30.11,North,360,0.0,3.0,61,0.00,,,0.00,,2013-01-03 18:33:00,
2013-01-03 13:43:00,36.0,24.0,30.11,North,360,0.0,3.0,61,0.00,,,0.00,,2013-01-03 18:43:00,
2013-01-03 13:53:00,36.0,23.0,30.11,NW,315,0.0,3.0,58,0.00,,,0.00,,2013-01-03 18:53:00,
2013-01-03 14:03:00,36.0,22.0,30.10,ESE,105,0.0,2.0,57,0.00,,,0.00,,2013-01-03 19:03:00,
2013-01-03 14:12:00,36.0,22.0,30.10,ESE,105,0.0,2.0,57,0.00,,,0.00,,2013-01-03 19:12:00,
2013-01-03 14:56:00,37.0,23.0,30.10,North,356,0.0,3.0,56,0.00,,,0.00,,2013-01-03 19:56:00,
2013-01-03 15:03:00,37.0,22.0,30.11,SW,214,0.0,3.0,55,0.00,,,0.00,,2013-01-03 20:03:00,
2013-01-03 15:13:00,37.0,22.0,30.11,SW,214,0.0,3.0,55,0.00,,,0.00,,2013-01-03 20:13:00,
2013-01-03 15:22:00,37.0,22.0,30.11,WNW,288,0.0,3.0,54,0.00,,,0.00,,2013-01-03 20:22:00,
2013-01-03 15:33:00,37.0,22.0,30.11,WNW,292,0.0,3.0,55,0.00,,,0.00,,2013-01-03 20:33:00,
2013-01-03 15:42:00,37.0,22.0,30.11,WNW,292,0.0,3.0,55,0.00,,,0.00,,2013-01-03 20:42:00,
2013-01-03 15:53:00,37.0,22.0,30.10,NW,313,1.0,3.0,54,0.00,,,0.00,,2013-01-03 20:53:00,
2013-01-03 16:02:00,37.0,22.0,30.10,WNW,302,0.0,3.0,55,0.00,,,0.00,,2013-01-03 21:02:00,
2013-01-03 16:13:00,37.0,22.0,30.10,WNW,302,0.0,3.0,55,0.00,,,0.00,,2013-01-03 21:13:00,
2013-01-03 16:23:00,37.0,22.0,30.10,NW,310,0.0,3.0,54,0.00,,,0.00,,2013-01-03 21:23:00,
2013-01-03 16:36:00,37.0,22.0,30.10,NW,310,0.0,1.0,55,0.00,,,0.00,,2013-01-03 21:36:00,
2013-01-03 16:49:00,37.0,22.0,30.10,NW,310,0.0,1.0,55,0.00,,,0.00,,2013-01-03 21:49:00,
2013-01-03 17:03:00,36.0,22.0,30.11,WNW,294,0.0,0.0,57,0.00,,,0.00,,2013-01-03 22:03:00,
2013-01-03 17:12:00,36.0,22.0,30.11,WNW,294,0.0,0.0,57,0.00,,,0.00,,2013-01-03 22:12:00,
2013-01-03 17:22:00,36.0,22.0,30.11,WNW,294,0.0,1.0,57,0.00,,,0.00,,2013-01-03 22:22:00,
2013-01-03 17:33:00,35.0,22.0,30.12,WNW,294,0.0,0.0,58,0.00,,,0.00,,2013-01-03 22:33:00,
2013-01-03 17:42:00,35.0,22.0,30.12,WNW,294,0.0,0.0,58,0.00,,,0.00,,2013-01-03 22:42:00,
2013-01-03 17:53:00,35.0,22.0,30.12,WNW,294,0.0,0.0,59,0.00,,,0.00,,2013-01-03 22:53:00,
2013-01-03 18:03:00,34.0,22.0,30.13,WNW,294,0.0,0.0,60,0.00,,,0.00,,2013-01-03 23:03:00,
2013-01-03 18:12:00,34.0,22.0,30.13,WNW,294,0.0,0.0,60,0.00,,,0.00,,2013-01-03 23:12:00,
2013-01-03 18:23:00,33.0,21.0,30.13,WNW,294,0.0,0.0,62,0.00,,,0.00,,2013-01-03 23:23:00,
2013-01-03 18:33:00,33.0,22.0,30.13,WNW,294,0.0,0.0,64,0.00,,,0.00,,2013-01-03 23:33:00,
2013-01-03 18:43:00,33.0,22.0,30.13,WNW,294,0.0,0.0,64,0.00,,,0.00,,2013-01-03 23:43:00,
2013-01-03 18:53:00,32.0,23.0,30.13,WNW,294,0.0,0.0,69,0.00,,,0.00,,2013-01-03 23:53:00,
2013-01-03 19:03:00,32.0,22.0,30.12,WNW,294,0.0,0.0,66,0.00,,,0.00,,2013-01-04 00:03:00,
2013-01-03 19:13:00,32.0,22.0,30.12,WNW,294,0.0,0.0,66,0.00,,,0.00,,2013-01-04 00:13:00,
2013-01-03 19:22:00,31.0,21.0,30.13,WNW,294,0.0,0.0,67,0.00,,,0.00,,2013-01-04 00:22:00,
2013-01-03 19:32:00,31.0,22.0,30.12,WNW,294,0.0,0.0,68,0.00,,,0.00,,2013-01-04 00:32:00,
2013-01-03 19:42:00,31.0,22.0,30.12,WNW,294,0.0,0.0,68,0.00,,,0.00,,2013-01-04 00:42:00,
2013-01-03 19:53:00,30.0,21.0,30.12,WNW,294,0.0,0.0,68,0.00,,,0.00,,2013-01-04 00:53:00,
2013-01-03 20:02:00,30.0,21.0,30.13,WNW,294,0.0,0.0,69,0.00,,,0.00,,2013-01-04 01:02:00,
2013-01-03 20:12:00,30.0,21.0,30.13,WNW,294,0.0,0.0,69,0.00,,,0.00,,2013-01-04 01:12:00,
2013-01-03 20:22:00,30.0,21.0,30.13,WNW,294,0.0,0.0,70,0.00,,,0.00,,2013-01-04 01:22:00,
2013-01-03 20:33:00,29.0,21.0,30.13,WNW,294,0.0,0.0,73,0.00,,,0.00,,2013-01-04 01:33:00,
2013-01-03 20:42:00,29.0,21.0,30.13,WNW,294,0.0,0.0,73,0.00,,,0.00,,2013-01-04 01:42:00,
2013-01-03 20:53:00,29.0,22.0,30.12,WNW,294,0.0,0.0,74,0.00,,,0.00,,2013-01-04 01:53:00,
2013-01-03 21:02:00,29.0,22.0,30.12,WNW,294,0.0,0.0,74,0.00,,,0.00,,2013-01-04 02:02:00,
2013-01-03 21:12:00,29.0,22.0,30.12,WNW,294,0.0,0.0,74,0.00,,,0.00,,2013-01-04 02:12:00,
2013-01-03 21:22:00,29.0,22.0,30.13,WNW,294,0.0,0.0,75,0.00,,,0.00,,2013-01-04 02:22:00,
2013-01-03 21:33:00,28.0,21.0,30.12,WNW,294,0.0,0.0,75,0.00,,,0.00,,2013-01-04 02:33:00,
2013-01-03 21:42:00,28.0,21.0,30.12,WNW,294,0.0,0.0,75,0.00,,,0.00,,2013-01-04 02:42:00,
2013-01-03 21:53:00,28.0,21.0,30.13,WNW,294,0.0,0.0,75,0.00,,,0.00,,2013-01-04 02:53:00,
2013-01-03 22:03:00,28.0,21.0,30.13,WNW,294,0.0,0.0,76,0.00,,,0.00,,2013-01-04 03:03:00,
2013-01-03 22:12:00,28.0,21.0,30.13,WNW,294,0.0,0.0,76,0.00,,,0.00,,2013-01-04 03:12:00,
2013-01-03 22:22:00,28.0,22.0,30.14,WNW,294,0.0,0.0,77,0.00,,,0.00,,2013-01-04 03:22:00,
2013-01-03 22:32:00,28.0,22.0,30.13,WNW,294,0.0,0.0,78,0.00,,,0.00,,2013-01-04 03:32:00,
2013-01-03 22:42:00,28.0,22.0,30.13,WNW,294,0.0,0.0,78,0.00,,,0.00,,2013-01-04 03:42:00,
2013-01-03 22:53:00,28.0,22.0,30.14,WNW,294,0.0,0.0,78,0.00,,,0.00,,2013-01-04 03:53:00,
2013-01-03 23:02:00,27.0,21.0,30.13,WNW,294,0.0,0.0,78,0.00,,,0.00,,2013-01-04 04:02:00,
2013-01-03 23:12:00,27.0,21.0,30.13,WNW,294,0.0,0.0,78,0.00,,,0.00,,2013-01-04 04:12:00,
2013-01-03 23:22:00,27.0,21.0,30.14,WNW,294,0.0,0.0,79,0.00,,,0.00,,2013-01-04 04:22:00,
2013-01-03 23:32:00,27.0,21.0,30.14,WNW,294,0.0,0.0,79,0.00,,,0.00,,2013-01-04 04:32:00,
2013-01-03 23:42:00,27.0,21.0,30.14,WNW,294,0.0,0.0,79,0.00,,,0.00,,2013-01-04 04:42:00,
2013-01-03 23:53:00,27.0,21.0,30.14,WNW,294,0.0,0.0,79,0.00,,,0.00,,2013-01-04 04:53:00,